Ozark, AL

12:02 AM CDT on May 26, 2017 (GMT -0500)
Cairns Army Air Field

Weather History for KOZR - November, 2013

Change the Weather History Date:

Friday, November 1, 2013

  Actual Average Record
Temperature  
Mean Temperature 67 °F -  
Max Temperature 73 °F 72 °F 87 °F (2016)
Min Temperature 60 °F 49 °F 37 °F (2008)
Cooling Degree Days 2    
Growing Degree Days 17 (Base 50)    
Moisture  
Dew Point 68 °F    
Average Humidity 97    
Maximum Humidity 100    
Minimum Humidity 94    
Precipitation  
Precipitation 0.20 in - - ()
Sea Level Pressure  
Sea Level Pressure 29.84 in    
Wind  
Wind Speed 7 mph (SW)    
Max Wind Speed 16 mph    
Max Gust Speed 17 mph    
Visibility 7 miles    
Events Fog , Rain    
Averages and records for this station are not official NWS values.
T = Trace of Precipitation, MM = Missing Value Source: NWS Daily Summary

Daily Weather History Graph

Daily Weather History Graph

Search for Another Location

Airport or City:

Trip Planner

Search our weather history database for the weather conditions in past years. The results will help you decide how hot, cold, wet, or windy it might be!

Date:

Astronomy

Nov. 01, 2013 Rise Set
Actual Time 6:58 AM CDT 5:53 PM CDT
Civil Twilight 6:33 AM CDT 6:18 PM CDT
Nautical Twilight 6:04 AM CDT 6:47 PM CDT
Astronomical Twilight 5:36 AM CDT 7:15 PM CDT
Moon 4:57 AM CDT (11/1) 4:41 PM CDT (11/1)
Length of Visible Light 11h 45m
Length of Day
10h 55m
Waning Crescent, 4% of the Moon is Illuminated
Nov 1
Waning Crescent
Nov 3
New
Nov 9
First Quarter
Nov 17
Full
Nov 25
Last Quarter

Hourly Weather History & Observations

Time (CDT) Temp. Dew Point Humidity Pressure Visibility Wind Dir Wind Speed Gust Speed Precip Events Conditions
12:48 AM 69.8 °F 69.8 °F 100% 29.90 in 8.0 mi SSE 5.8 mph - N/A   Mostly Cloudy
12:58 AM 70.0 °F 69.4 °F 98% 29.90 in 8.0 mi SSE 5.8 mph - N/A   Mostly Cloudy
1:08 AM 69.8 °F 69.8 °F 100% 29.89 in 8.0 mi SSE 6.9 mph - N/A   Overcast
1:12 AM 69.8 °F 69.8 °F 100% 29.88 in 7.0 mi SSE 6.9 mph - N/A   Overcast
1:17 AM 69.8 °F 69.8 °F 100% 29.88 in 6.0 mi SSE 8.1 mph - N/A   Mostly Cloudy
1:58 AM 70.0 °F 69.4 °F 98% 29.85 in 10.0 mi SSE 9.2 mph - N/A   Mostly Cloudy
2:23 AM 71.6 °F 69.8 °F 94% 29.87 in 10.0 mi SSW 10.4 mph - N/A   Mostly Cloudy
2:33 AM 71.6 °F 69.8 °F 94% 29.85 in 10.0 mi South 9.2 mph - N/A   Overcast
2:49 AM 71.6 °F 69.8 °F 94% 29.85 in 10.0 mi South 6.9 mph - N/A Rain Light Rain
2:54 AM 71.6 °F 69.8 °F 94% 29.86 in 10.0 mi South 6.9 mph - N/A Rain Light Rain
2:58 AM 71.2 °F 70.7 °F 98% 29.85 in 10.0 mi SSW 5.8 mph - 0.01 in Rain Light Rain
3:01 AM 71.6 °F 69.8 °F 94% 29.85 in 10.0 mi South 6.9 mph - N/A   Overcast
3:06 AM 71.6 °F 69.8 °F 94% 29.85 in 10.0 mi South 10.4 mph - N/A Rain Light Rain
3:11 AM 71.6 °F 69.8 °F 94% 29.85 in 10.0 mi South 10.4 mph - N/A Rain Light Rain
3:21 AM 71.6 °F 69.8 °F 94% 29.83 in 9.0 mi SSE 16.1 mph - N/A Rain Light Rain
3:27 AM 71.6 °F 69.8 °F 94% 29.82 in 10.0 mi SSE 12.7 mph - N/A   Mostly Cloudy
3:37 AM 71.6 °F 71.6 °F 100% 29.84 in 10.0 mi SW 6.9 mph - N/A   Mostly Cloudy
3:47 AM 71.6 °F 71.6 °F 100% 29.84 in 10.0 mi South 6.9 mph - N/A Rain Light Rain
3:57 AM 71.6 °F 71.6 °F 100% 29.84 in 9.0 mi South 8.1 mph - N/A Rain Light Rain
3:58 AM 71.6 °F 71.6 °F 100% 29.84 in 9.0 mi South 8.1 mph - 0.00 in Rain Light Rain
4:03 AM 71.6 °F 71.6 °F 100% 29.84 in 9.0 mi South 8.1 mph - N/A Rain Light Rain
4:05 AM 71.6 °F 71.6 °F 100% 29.83 in 10.0 mi South 8.1 mph - N/A   Overcast
4:15 AM 71.6 °F 71.6 °F 100% 29.84 in 10.0 mi South 9.2 mph - N/A   Mostly Cloudy
4:20 AM 71.6 °F 71.6 °F 100% 29.84 in 10.0 mi South 9.2 mph - N/A   Overcast
4:30 AM 71.6 °F 71.6 °F 100% 29.83 in 10.0 mi SSW 10.4 mph - N/A   Overcast
4:50 AM 71.6 °F 71.6 °F 100% 29.83 in 10.0 mi SSW 6.9 mph - N/A   Overcast
4:58 AM 72.1 °F 71.2 °F 97% 29.83 in 10.0 mi South 8.1 mph - 0.00 in   Overcast
5:18 AM 71.6 °F 71.6 °F 100% 29.83 in 10.0 mi South 5.8 mph - N/A   Overcast
5:58 AM 71.6 °F 71.6 °F 100% 29.84 in 8.0 mi SSW 5.8 mph - N/A   Overcast
6:19 AM 71.6 °F 71.6 °F 100% 29.83 in 7.0 mi SSW 5.8 mph - N/A   Overcast
6:39 AM 71.6 °F 71.6 °F 100% 29.84 in 6.0 mi South 6.9 mph - N/A   Overcast
6:47 AM 71.6 °F 71.6 °F 100% 29.83 in 1.5 mi South 5.8 mph - N/A   Overcast
6:58 AM 71.6 °F 71.6 °F 100% 29.83 in 1.5 mi South 5.8 mph - N/A   Overcast
7:03 AM 71.6 °F 71.6 °F 100% 29.83 in 2.0 mi South 5.8 mph - N/A   Overcast
7:33 AM 71.6 °F 71.6 °F 100% 29.84 in 2.0 mi South 5.8 mph - N/A   Overcast
7:58 AM 72.7 °F 72.3 °F 99% 29.84 in 9.0 mi South 10.4 mph - N/A   Overcast
8:10 AM 73.4 °F 73.4 °F 100% 29.84 in 3.0 mi South 9.2 mph - N/A   Overcast
8:29 AM 73.4 °F 73.4 °F 100% 29.84 in 2.0 mi South 6.9 mph - N/A   Overcast
8:33 AM 73.4 °F 73.4 °F 100% 29.84 in 2.0 mi South 5.8 mph - N/A Rain Light Rain
8:39 AM 73.4 °F 73.4 °F 100% 29.85 in 1.0 mi South 6.9 mph - N/A Rain Light Rain
8:50 AM 73.4 °F 73.4 °F 100% 29.85 in 0.8 mi West 5.8 mph - N/A Rain Rain
9:01 AM 71.6 °F 69.8 °F 94% 29.85 in 1.0 mi Variable 6.9 mph 17.3 mph N/A Rain Light Rain
9:10 AM 71.6 °F 69.8 °F 94% 29.85 in 2.0 mi WSW 6.9 mph - N/A Rain Light Rain
9:20 AM 71.6 °F 69.8 °F 94% 29.85 in 1.0 mi WSW 6.9 mph - N/A Rain Light Rain
9:28 AM 71.6 °F 69.8 °F 94% 29.85 in 2.0 mi WSW 6.9 mph - N/A Rain Light Rain
9:55 AM 71.6 °F 69.8 °F 94% 29.85 in 2.0 mi WNW 4.6 mph - N/A Rain Light Rain
10:45 AM 69.8 °F 68.0 °F 94% 29.85 in 2.0 mi NNW 8.1 mph - N/A Rain Rain
10:58 AM 69.3 °F 68.2 °F 96% 29.85 in 3.0 mi NNW 8.1 mph - 0.06 in Rain Light Rain
11:06 AM 68.0 °F 68.0 °F 100% 29.86 in 5.0 mi NNE 5.8 mph - N/A Rain Light Rain
11:16 AM 68.0 °F 68.0 °F 100% 29.86 in 7.0 mi NNE 2.3 mph - N/A Rain Light Rain
11:53 AM 68.0 °F 68.0 °F 100% 29.84 in 10.0 mi North 5.8 mph - N/A   Overcast
11:55 AM 69.8 °F 68.0 °F 94% 29.84 in 10.0 mi North 6.9 mph - N/A   Light Drizzle
11:58 AM 68.9 °F 67.8 °F 96% 29.84 in 10.0 mi North 5.8 mph - 0.09 in   Light Drizzle
12:03 PM 68.0 °F 68.0 °F 100% 29.84 in 10.0 mi North 5.8 mph - N/A   Light Drizzle
12:06 PM 68.0 °F 68.0 °F 100% 29.85 in 10.0 mi NNW 5.8 mph - N/A   Overcast
12:13 PM 68.0 °F 68.0 °F 100% 29.85 in 10.0 mi NNW 6.9 mph - N/A   Overcast
12:43 PM 66.2 °F 66.2 °F 100% 29.84 in 10.0 mi North 4.6 mph - N/A   Overcast
12:53 PM 66.2 °F 66.2 °F 100% 29.83 in 10.0 mi North 4.6 mph - N/A   Overcast
12:58 PM 67.1 °F 66.2 °F 97% 29.83 in 10.0 mi North 5.8 mph - 0.00 in   Overcast
1:03 PM 68.0 °F 66.2 °F 94% 29.83 in 10.0 mi North 4.6 mph - N/A   Overcast
1:06 PM 68.0 °F 66.2 °F 94% 29.83 in 10.0 mi NNW 5.8 mph - N/A   Overcast
1:11 PM 68.0 °F 66.2 °F 94% 29.82 in 10.0 mi NNW 5.8 mph - N/A   Overcast
1:21 PM 68.0 °F 66.2 °F 94% 29.82 in 10.0 mi NNW 6.9 mph - N/A   Overcast
1:36 PM 68.0 °F 66.2 °F 94% 29.82 in 10.0 mi NNW 8.1 mph - N/A   Overcast
1:56 PM 68.0 °F 66.2 °F 94% 29.81 in 10.0 mi North 6.9 mph - N/A   Overcast
1:58 PM 68.0 °F 66.4 °F 95% 29.81 in 10.0 mi North 6.9 mph - N/A   Overcast
2:21 PM 68.0 °F 66.2 °F 94% 29.81 in 10.0 mi NNW 4.6 mph - N/A   Light Drizzle
2:36 PM 68.0 °F 66.2 °F 94% 29.81 in 5.0 mi WNW 4.6 mph - N/A Rain Light Rain
2:51 PM 68.0 °F 66.2 °F 94% 29.80 in 5.0 mi Calm Calm - N/A Rain Light Rain
2:58 PM 67.6 °F 66.0 °F 95% 29.80 in 8.0 mi NW 2.3 mph - 0.02 in   Light Drizzle
3:01 PM 68.0 °F 66.2 °F 94% 29.79 in 10.0 mi NW 3.5 mph - N/A   Scattered Clouds
3:13 PM 68.0 °F 66.2 °F 94% 29.79 in 9.0 mi WNW 3.5 mph - N/A Rain Light Rain
3:23 PM 68.0 °F 66.2 °F 94% 29.80 in 5.0 mi West 1.2 mph - N/A Rain Light Rain
3:28 PM 68.0 °F 66.2 °F 94% 29.80 in 6.0 mi West 1.2 mph - N/A   Light Drizzle
3:34 PM 68.0 °F 66.2 °F 94% 29.79 in 10.0 mi Calm Calm - N/A   Scattered Clouds
3:38 PM 68.0 °F 66.2 °F 94% 29.79 in 10.0 mi West 1.2 mph - N/A   Light Drizzle
3:58 PM 67.8 °F 66.2 °F 95% 29.80 in 8.0 mi South 3.5 mph - 0.00 in   Light Drizzle
4:13 PM 68.0 °F 66.2 °F 94% 29.79 in 5.0 mi South 4.6 mph - N/A Rain Light Rain
4:18 PM 68.0 °F 66.2 °F 94% 29.78 in 7.0 mi SSE 4.6 mph - N/A   Light Drizzle
4:23 PM 68.0 °F 66.2 °F 94% 29.78 in 9.0 mi SSE 5.8 mph - N/A   Light Drizzle
4:26 PM 68.0 °F 66.2 °F 94% 29.78 in 10.0 mi SSE 5.8 mph - N/A   Mostly Cloudy
4:43 PM 68.0 °F 66.2 °F 94% 29.78 in 10.0 mi South 5.8 mph - N/A   Mostly Cloudy
4:58 PM 67.8 °F 66.9 °F 97% 29.78 in 10.0 mi South 5.8 mph - 0.01 in   Overcast
5:18 PM 68.0 °F 66.2 °F 94% 29.80 in 10.0 mi SSW 5.8 mph - N/A   Overcast
5:33 PM 68.0 °F 66.2 °F 94% 29.80 in 10.0 mi SW 4.6 mph - N/A   Overcast
5:38 PM 68.0 °F 66.2 °F 94% 29.80 in 10.0 mi SW 5.8 mph - N/A   Overcast
5:44 PM 68.0 °F 66.2 °F 94% 29.80 in 10.0 mi WSW 4.6 mph - N/A Rain Light Rain
5:53 PM 68.0 °F 66.2 °F 94% 29.80 in 10.0 mi WSW 5.8 mph - N/A   Scattered Clouds
5:58 PM 67.3 °F 66.0 °F 96% 29.81 in 10.0 mi WSW 5.8 mph - 0.00 in   Scattered Clouds
6:58 PM 65.7 °F 64.8 °F 97% 29.82 in 10.0 mi SW 3.5 mph - N/A   Scattered Clouds
7:58 PM 65.3 °F 64.8 °F 98% 29.84 in 10.0 mi West 2.3 mph - 0.01 in   Mostly Cloudy
8:58 PM 64.4 °F 64.0 °F 99% 29.84 in 4.0 mi West 3.5 mph - N/A   Partly Cloudy
9:03 PM 64.4 °F 64.4 °F 100% 29.85 in 2.5 mi West 3.5 mph - N/A   Partly Cloudy
9:08 PM 64.4 °F 64.4 °F 100% 29.85 in 1.5 mi West 3.5 mph - N/A   Partly Cloudy
9:18 PM 64.4 °F 62.6 °F 94% 29.85 in 2.0 mi West 4.6 mph - N/A   Partly Cloudy
9:23 PM 62.6 °F 62.6 °F 100% 29.85 in 3.0 mi West 3.5 mph - N/A   Partly Cloudy
9:38 PM 62.6 °F 62.6 °F 100% 29.86 in 2.0 mi West 2.3 mph - N/A   Clear
9:43 PM 62.6 °F 62.6 °F 100% 29.86 in 1.0 mi WNW 2.3 mph - N/A   Clear
9:48 PM 62.6 °F 62.6 °F 100% 29.87 in 0.8 mi WNW 2.3 mph - N/A   Clear
9:53 PM 62.6 °F 62.6 °F 100% 29.87 in 0.5 mi West 2.3 mph - N/A Fog Fog
9:58 PM 62.2 °F 62.1 °F 99% 29.87 in 0.5 mi West 2.3 mph - N/A Fog Fog
10:03 PM 62.6 °F 62.6 °F 100% 29.87 in 0.2 mi West 2.3 mph - N/A Fog Fog
10:28 PM 62.6 °F 60.8 °F 94% 29.87 in 0.8 mi WNW 5.8 mph - N/A   Clear
10:33 PM 62.6 °F 62.6 °F 100% 29.87 in 3.0 mi WNW 4.6 mph - N/A   Clear
10:58 PM 61.5 °F 61.3 °F 99% 29.88 in 9.0 mi WNW 5.8 mph - N/A   Clear
11:58 PM 60.4 °F 60.1 °F 99% 29.88 in 10.0 mi NW 6.9 mph - N/A   Clear